Overview Statistics Trail Chart Weather Telemetry Raw packets
 

This is the latest recevied weather packets stored in our database for station/object KI6SYE. If no packets are shown the sender has not sent any weather packets the latest 10 day(s).

<< 69 70 71 72 73 74 75 >>
Time Temp. Humidity Pressure Rain* Wind** Luminosity Snow
1788190509 22.22° C 82% 1013.3 hPa 0 mm - 140 W/m² -
1788190207 22.22° C 82% 1013.2 hPa 0 mm - 138 W/m² -
1788189902 22.22° C 82% 1013.3 hPa 0 mm - 118 W/m² -
1788189596 22.22° C 83% 1013.2 hPa 0 mm - 120 W/m² -
1788189296 21.67° C 84% 1013.2 hPa 0 mm - 104 W/m² -
1788188990 21.67° C 85% 1013.3 hPa 0 mm - 99 W/m² -
1788188686 21.67° C 85% 1013.2 hPa 0 mm - 103 W/m² -
1788188386 21.67° C 86% 1013.3 hPa 0 mm - 96 W/m² -
1788188082 21.11° C 87% 1013.4 hPa 0 mm - 105 W/m² -
1788187778 21.11° C 87% 1013.2 hPa 0 mm - 97 W/m² -
1788187473 20.56° C 88% 1013 hPa 0 mm - 94 W/m² -
1788187168 20.56° C 89% 1013.1 hPa 0 mm - 80 W/m² -
1788186863 20.56° C 89% 1012.9 hPa 0 mm - 73 W/m² -
1788186559 20° C 90% 1012.8 hPa 0 mm - 66 W/m² -
1788186255 20° C 90% 1012.8 hPa 0 mm - 55 W/m² -
1788185954 20° C 90% 1012.8 hPa 0 mm - 53 W/m² -
1788185648 20° C 90% 1012.7 hPa 0 mm - 38 W/m² -
1788185344 20° C 90% 1012.5 hPa 0 mm - 31 W/m² -
1788185038 20° C 90% 1012.5 hPa 0 mm - 29 W/m² -
1788184736 20° C 90% 1012.4 hPa 0 mm - 24 W/m² -
1788184431 20° C 90% 1012.2 hPa 0 mm - 20 W/m² -
1788184126 20° C 90% 1012.3 hPa 0 mm - 15 W/m² -
1788183823 20° C 90% 1012.4 hPa 0 mm - 12 W/m² -
1788183522 20° C 90% 1012.2 hPa 0 mm - 9 W/m² -
1788183222 20° C 90% 1012.2 hPa 0 mm - 6 W/m² -

* Rain latest hour (hover to see other rain measurements)
** Current wind speed in m/s (hover to see current wind gust speed)